sat.trackr.live / text

‹ back to catalog

STARLINK-34173

NORAD 64196 · 2025-113AC

PAYLOAD ACTIVE UNKNOWN

§ Identity

Operator
Country
US
Launch date
2025-05-28
Launch site
AFETR
Launch vehicle
Mass (kg)
RCS (m²)

Purposes: comms

External: N2YO · Heavens-Above · Gunter

§ Orbital elements

Epoch: 2026-09-20T16:52:06.046464Z

Period
94.01 min
Inclination
53.1556°
Eccentricity
0.0000992
Mean motion
15.31711276 rev/d
Perigee alt
470.0 km
Apogee alt
471.4 km
Semi-major
6,848.8 km
B*
4.0856e-4
RAAN
263.8160°
Arg perigee
82.3718°
Mean anomaly
277.7396°
Rev number
7,494

§ Raw data

STARLINK-341731 64196U 25113AC  26263.70284776  .00012338  00000+0  40856-3 0  99902 64196  53.1556 263.8160 0000992  82.3718 277.7396 15.31711276 74947

JSON: /api/v1/satellites/64196 · /tle

For live sub-satellite position, see the globe view (requires WebGL).

§ Visibility from observer

Set your observer location to see the next 7 days of passes ≥ 10°. The values pass through the URL so the page stays shareable.

No JS? Fill the form by hand. The geolocation button needs JavaScript.